sat.trackr.live / text

‹ back to catalog

ONEWEB-0028

NORAD 45140 · 2020-008K

PAYLOAD ACTIVE UNKNOWN

§ Identity

Operator
Country
UK
Launch date
2020-02-06
Launch site
TYMSC
Launch vehicle
Mass (kg)
RCS (m²)

Purposes: comms

External: N2YO · Heavens-Above · Gunter

§ Orbital elements

Epoch: 2026-09-20T01:06:30.529152Z

Period
109.81 min
Inclination
87.8964°
Eccentricity
0.0002313
Mean motion
13.11414793 rev/d
Perigee alt
1,215.9 km
Apogee alt
1,219.4 km
Semi-major
7,595.8 km
B*
1.5928e-3
RAAN
2.2136°
Arg perigee
104.2687°
Mean anomaly
255.8698°
Rev number
32,105

§ Raw data

ONEWEB-00281 45140U 20008K   26263.04618668  .00000577  00000+0  15928-2 0  99972 45140  87.8964   2.2136 0002313 104.2687 255.8698 13.11414793321057

JSON: /api/v1/satellites/45140 · /tle

For live sub-satellite position, see the globe view (requires WebGL).

§ Visibility from observer

Set your observer location to see the next 7 days of passes ≥ 10°. The values pass through the URL so the page stays shareable.

No JS? Fill the form by hand. The geolocation button needs JavaScript.